Theta_e
297 299 299 300 300 299 299 299 299 299 299 298 298 297 297 297 297 297 297 297 296 296 296 296 296 296 296 295 295 295 295 295 295 294 293 293 293 293 292 293 293 294 294
293 297 298 298 299 299 299 298 299 298 299 299 298 297 297 297 297 297 297 297 297 296 296 296 296 296 295 296 296 295 295 295 295 294 292 289 291 293 293 293 293 293 294
295 293 296 297 299 299 299 299 298 298 299 299 298 297 297 296 297 297 297 297 297 297 296 296 296 296 295 296 296 296 296 295 295 295 294 289 290 291 293 293 293 293 294
294 295 295 296 298 299 299 299 299 298 299 299 298 297 296 297 297 297 298 297 297 297 297 296 296 296 295 295 296 296 296 295 295 295 294 293 293 290 290 293 293 293 294
295 295 296 297 299 299 300 299 299 298 299 299 299 297 296 297 297 297 297 297 297 297 297 297 296 296 296 295 295 295 296 296 295 295 294 293 293 292 290 292 293 294 294
294 295 297 298 297 298 299 299 299 299 298 299 299 298 297 296 297 297 297 297 297 297 297 297 296 296 296 296 295 295 295 296 296 296 295 293 293 292 292 290 293 295 294
295 294 294 296 297 298 298 299 299 299 298 299 299 298 297 296 296 296 297 297 296 297 296 296 296 296 296 296 296 295 295 295 296 296 295 294 294 293 293 293 294 294 295
295 295 295 296 297 297 298 299 299 299 298 298 299 298 298 297 296 296 296 296 296 296 297 296 296 296 296 296 295 295 294 294 295 296 296 296 294 293 293 293 294 295 294
297 296 295 296 297 297 298 299 299 299 299 299 299 298 298 297 296 296 296 296 296 296 296 296 296 296 296 296 295 295 294 294 295 296 296 296 295 293 293 293 294 294 295
299 297 296 296 297 297 298 299 299 299 300 299 299 298 298 298 297 296 296 296 296 296 296 296 296 296 295 295 295 294 294 293 294 295 296 297 295 294 293 293 293 295 294
299 298 298 297 298 298 297 298 298 299 299 299 299 298 298 298 298 297 296 296 296 296 296 296 296 296 295 295 295 294 293 293 294 296 295 296 295 294 293 293 294 295 295
300 297 298 298 297 297 297 297 298 298 299 299 299 299 298 298 298 297 297 296 296 296 296 296 296 295 295 294 294 293 292 294 294 296 293 296 295 294 293 293 294 294 296
300 298 296 295 296 296 297 297 298 298 299 299 299 299 298 298 298 298 297 296 296 296 296 295 295 295 294 294 294 293 292 293 294 294 294 296 295 294 292 294 294 295 296
300 299 296 295 296 296 296 297 297 298 299 299 299 299 299 298 298 298 298 297 296 296 296 295 295 295 294 293 293 293 292 294 295 295 295 296 295 293 293 295 296 295 295
299 299 298 295 296 296 297 297 297 298 298 299 299 299 299 299 298 298 298 297 296 296 296 296 295 295 294 293 293 292 293 294 295 295 295 296 296 294 294 295 296 295 294
299 299 298 297 296 296 297 297 298 298 298 298 299 299 299 299 299 298 298 298 297 296 296 296 296 295 294 293 293 294 295 295 296 296 294 295 295 293 293 295 296 295 294
299 298 297 298 298 298 298 298 298 298 298 298 298 298 299 299 299 298 298 297 297 296 296 296 296 295 294 293 293 295 296 296 297 296 294 295 295 293 291 293 294 292 292
300 298 298 299 301 301 299 298 298 298 298 298 298 298 298 299 298 298 298 298 297 296 296 296 296 295 295 293 293 296 297 296 296 295 294 295 294 293 292 294 293 291 291
299 299 300 299 300 300 299 298 297 297 297 297 297 298 298 298 298 298 298 298 297 297 296 296 296 295 295 293 293 296 296 296 295 295 294 294 294 293 293 294 293 290 291
302 301 301 301 301 300 300 297 297 297 297 297 298 298 298 298 298 298 298 298 297 297 297 296 296 295 295 294 293 295 295 296 295 295 294 294 294 293 294 294 292 290 291
304 304 303 303 303 301 299 298 297 296 299 298 298 297 297 298 298 298 298 298 297 297 296 296 296 295 295 295 294 294 296 296 296 295 294 294 293 293 294 294 293 291 291
305 306 305 305 306 303 301 299 298 301 299 298 297 297 298 297 297 297 297 297 297 296 296 296 295 295 295 295 295 294 296 297 296 296 295 295 294 293 293 293 292 293 291
304 306 306 306 308 307 303 301 306 302 299 298 298 297 297 297 297 297 296 296 296 295 295 295 295 295 295 296 295 295 297 298 298 297 296 296 294 294 293 291 292 291 289
304 305 306 305 307 308 306 305 305 303 299 298 298 297 297 297 297 296 296 296 295 294 294 294 294 295 295 296 295 295 295 298 298 298 297 295 294 294 292 290 292 290 289
304 306 306 305 307 306 306 306 305 303 302 299 297 297 297 296 296 296 296 296 296 297 295 295 295 295 295 296 296 295 295 295 297 297 295 293 293 292 292 291 291 290 290
306 305 304 302 302 301 301 301 301 302 302 299 297 297 296 296 296 296 296 296 296 297 297 297 297 297 296 296 295 295 295 295 296 295 293 292 291 289 290 290 290 290 290
Wind_Speed
20 28 28 28 26 25 24 22 20 17 17 14 13 13 14 13 12 9 8 6 5 5 5 6 7 8 10 11 13 15 18 21 25 21 22 9 6 5 19 20 24 26 24
8 20 28 29 30 29 27 25 23 20 20 17 15 16 13 14 13 11 10 8 7 6 5 6 6 8 8 9 11 14 15 16 19 14 9 4 6 10 7 21 27 27 26
14 12 26 33 32 32 30 27 24 23 22 19 17 17 16 16 14 14 13 10 9 7 7 8 7 8 9 9 10 11 13 13 15 13 5 3 3 16 7 13 24 27 27
10 14 22 29 38 38 32 28 26 26 24 21 21 21 20 19 18 15 13 11 10 9 10 10 10 9 9 9 9 10 11 11 13 12 6 8 10 3 5 11 19 26 26
14 15 24 34 43 40 37 32 28 28 27 26 24 22 22 20 16 14 14 13 12 11 10 11 11 11 10 10 10 11 11 11 11 10 11 12 10 12 6 7 20 21 23
12 18 27 31 32 38 38 34 32 31 29 28 26 25 24 22 19 18 16 15 14 13 12 11 11 12 11 10 11 12 11 11 12 11 12 13 9 8 6 4 13 17 20
9 11 15 23 30 36 38 36 35 35 33 31 29 28 26 23 23 20 18 17 16 15 12 12 12 12 12 12 12 13 12 12 12 13 13 13 14 16 16 12 13 14 20
9 12 20 26 30 36 40 40 38 38 36 34 32 30 27 25 24 21 19 18 17 15 13 12 13 12 12 12 12 13 14 12 13 14 14 16 15 15 15 13 10 8 10
9 12 18 27 31 34 40 44 42 40 38 37 34 32 29 27 26 23 20 20 17 16 14 14 14 14 13 13 13 14 14 14 14 15 15 16 15 14 14 13 12 8 5
7 8 16 25 31 36 40 43 44 43 40 37 36 34 31 28 25 23 23 21 19 17 16 16 16 15 14 14 14 14 14 15 13 14 15 16 14 14 14 13 14 15 10
9 10 16 25 31 34 36 41 44 43 41 38 36 35 33 30 27 26 25 23 20 19 18 17 17 17 16 15 15 15 15 14 15 14 16 15 13 14 15 12 15 17 12
9 8 15 22 27 32 35 39 41 43 43 40 37 35 33 31 30 29 27 23 23 20 20 18 19 18 17 16 15 15 15 14 15 15 16 14 13 14 14 12 15 19 14
9 8 8 15 22 28 32 36 39 43 42 40 37 35 35 34 33 30 28 25 24 22 21 20 20 19 18 17 16 16 15 14 14 15 15 14 14 15 15 14 16 17 13
9 7 7 13 20 24 28 33 37 40 41 40 38 37 36 36 35 32 29 26 25 24 23 22 21 20 19 18 17 16 16 14 14 14 14 14 14 14 14 14 12 15 12
9 8 7 7 16 22 27 30 34 37 40 39 39 40 38 35 34 33 31 28 27 26 24 23 22 21 20 19 18 17 16 16 16 15 14 14 14 12 13 13 13 13 12
8 8 7 9 12 19 25 29 33 37 37 39 40 39 37 36 35 34 32 30 28 27 26 25 23 22 22 19 18 16 17 17 17 17 16 14 13 12 12 9 11 11 12
8 9 8 9 15 18 22 28 32 31 33 37 38 37 37 36 36 34 32 32 31 28 28 27 25 25 23 20 18 17 18 18 18 17 16 14 12 10 11 9 11 12 7
6 7 10 14 15 14 17 22 23 27 30 33 36 36 36 36 35 34 34 33 32 31 30 29 27 25 24 20 18 17 17 18 17 17 15 14 10 10 9 10 11 10 8
7 10 13 14 14 14 11 15 20 23 26 31 34 35 35 35 35 35 35 34 33 32 31 30 27 26 25 20 19 17 18 19 18 16 14 11 11 11 8 10 11 10 7
4 7 10 10 11 12 10 10 17 21 28 31 33 32 33 35 36 36 35 34 33 33 31 30 29 26 25 20 19 17 18 18 17 15 13 12 12 9 8 11 10 8 6
5 5 6 9 10 10 8 9 13 21 26 26 27 28 30 33 34 34 33 33 32 31 30 30 28 26 25 22 20 18 19 20 17 15 12 9 8 8 9 10 10 8 6
6 5 8 11 11 9 9 11 15 19 19 21 24 26 28 30 31 32 32 31 30 30 30 29 29 28 25 23 21 19 19 19 19 16 13 12 8 8 7 8 9 7 8
8 7 9 14 14 12 10 13 19 17 17 19 22 25 26 28 29 30 30 30 30 30 30 29 29 31 27 24 22 20 19 19 20 17 15 15 12 9 8 8 7 8 8
13 10 10 14 20 16 14 15 17 19 19 21 23 25 26 27 28 30 31 31 30 29 27 25 26 29 27 24 21 21 19 18 19 18 15 12 12 12 11 10 10 10 8
12 9 10 13 20 20 21 21 19 16 20 24 25 26 27 28 28 31 33 34 35 35 32 32 30 28 27 27 22 22 22 21 22 20 16 14 15 15 14 14 14 13 11
10 10 12 13 18 19 24 27 22 18 18 21 25 27 28 29 28 28 29 30 32 32 32 30 28 26 24 19 16 18 20 20 20 18 18 17 16 16 16 16 16 15 15
Wind_Direction
227 220 215 209 207 207 205 205 206 207 210 215 222 226 234 234 240 250 260 273 301 310 322 340 354 0 0 1 0 357 359 5 0 349 351 359 316 333 353 356 358 2 357
217 220 216 211 209 208 207 207 209 212 214 222 229 231 240 240 246 250 244 263 276 284 305 311 319 345 344 348 352 351 354 353 3 352 342 348 343 316 338 350 355 350 357
220 215 213 215 212 211 209 210 214 214 216 221 228 230 236 236 234 236 243 255 259 266 275 286 300 319 320 331 340 342 342 340 352 359 8 348 305 324 312 341 347 347 350
212 213 211 211 215 218 215 216 217 214 215 220 224 227 229 232 241 243 241 247 252 263 264 270 277 288 307 309 313 328 338 333 332 341 331 279 274 302 326 318 340 344 345
210 209 209 214 219 219 216 216 216 216 217 220 225 229 232 238 244 241 242 246 250 261 261 266 267 272 293 301 303 302 311 327 323 323 318 316 284 285 254 311 332 340 342
213 219 216 217 216 222 219 216 215 217 218 221 225 229 234 235 236 237 241 247 251 255 258 262 265 270 284 295 301 302 307 307 317 312 310 299 290 289 296 275 315 321 329
207 210 206 206 212 218 219 216 217 219 219 221 226 231 236 237 239 240 243 247 249 251 255 262 266 274 283 291 294 298 301 304 306 308 312 307 300 300 305 293 302 318 321
206 208 209 209 212 216 218 216 217 221 221 222 228 233 237 240 242 243 244 249 252 258 260 266 267 275 283 286 290 292 298 297 290 309 305 308 308 305 304 299 306 313 322
221 219 214 213 215 215 218 217 218 221 223 225 229 232 236 239 241 244 246 251 254 258 262 266 267 274 281 283 285 289 294 292 287 298 304 307 309 305 305 307 302 296 316
259 234 222 219 221 223 223 221 221 222 225 226 230 233 236 239 244 245 246 250 255 256 261 264 267 273 278 279 280 285 291 290 286 293 306 308 306 303 303 307 304 307 292
255 240 230 226 225 226 222 222 221 223 225 228 231 233 236 237 241 244 247 250 254 256 260 264 267 270 276 277 277 282 288 284 288 288 300 302 306 305 303 305 304 304 300
272 251 237 230 222 221 218 219 220 222 227 229 231 233 237 237 239 242 246 250 252 254 259 262 266 269 272 275 274 279 285 281 287 293 295 296 303 303 307 300 308 310 307
298 288 252 222 219 217 215 217 219 225 227 228 231 235 236 237 238 241 245 248 251 253 256 259 260 266 271 272 272 274 281 280 286 296 295 292 301 300 310 305 310 318 300
295 291 276 241 230 219 215 217 220 227 228 229 231 233 236 238 240 242 244 247 249 253 254 257 260 264 268 269 268 271 278 269 285 297 295 288 295 295 306 308 315 320 312
314 306 299 275 240 221 219 223 226 228 228 229 232 235 238 240 243 244 244 246 247 250 255 257 257 263 263 265 266 269 273 271 278 287 295 287 291 291 299 298 311 318 317
305 306 302 300 258 231 224 221 227 230 227 228 234 237 238 239 241 243 244 246 247 247 252 254 257 260 262 265 264 263 270 277 275 281 295 285 285 289 302 291 310 314 316
295 302 306 309 300 264 244 231 233 229 226 230 234 236 238 240 242 243 244 244 246 248 249 253 256 260 263 264 261 259 264 271 271 277 291 286 280 283 304 298 306 319 305
282 301 306 318 321 307 267 256 243 234 229 229 233 235 238 240 242 244 244 245 245 247 249 251 255 261 263 264 262 260 262 269 268 277 286 283 270 279 301 298 313 326 316
280 288 309 317 325 324 296 250 238 237 237 235 233 234 236 239 241 241 244 245 244 246 248 252 255 258 263 263 261 259 260 265 267 273 278 273 276 275 281 294 309 324 336
288 298 322 331 334 341 323 261 243 235 234 239 242 240 238 238 239 243 244 245 245 248 251 252 254 258 262 261 259 257 259 261 263 268 274 270 273 261 257 290 298 315 330
292 313 318 324 339 340 322 273 257 248 257 256 250 247 245 241 243 244 244 245 245 246 248 251 254 256 257 260 257 255 251 256 258 261 268 267 264 244 257 277 277 294 303
269 308 318 322 335 330 314 295 274 292 277 264 255 249 245 244 244 242 243 242 242 243 246 248 252 254 255 255 255 254 246 251 248 252 260 258 259 242 261 261 266 264 272
257 281 293 309 319 322 305 291 304 305 290 268 256 251 250 248 241 239 240 239 237 237 240 242 246 253 254 253 252 253 247 241 240 248 255 264 244 236 245 248 244 234 263
248 267 288 297 301 312 303 293 302 303 290 273 262 255 248 245 243 242 241 239 235 229 228 230 235 248 255 253 249 244 239 233 233 245 234 238 232 236 243 218 230 245 248
251 269 278 289 294 307 303 300 305 299 286 279 270 261 254 246 244 242 238 236 241 239 229 233 237 238 247 254 253 242 234 230 228 229 225 227 232 238 229 223 226 233 239
280 292 294 291 294 302 303 304 309 304 285 274 271 264 257 253 245 243 243 246 248 250 250 250 248 249 255 257 249 236 232 227 223 217 228 233 231 225 216 213 215 226 237